Regional Weather Roundup
Issued by NWS

Home | Current Version | Previous Version | Graphics & Text | Print | Product List | Glossary On
Versions: 1 2 3 4 5 6 7 8 9 10 11 12 13 14 15 16 17 18 19 20 21 22 23 24 25 26 27 28 29 30 31 32 33 34 35 36 37 38 39 40 41 42 43 44 45 46 47 48 49 50
000
ASUS45 KBOI 260310
RWRID
WEATHER ROUNDUP FOR IDAHO
NATIONAL WEATHER SERVICE BOISE ID
800 PM MST TUE NOV 25 2014

NOTE: "FAIR" INDICATES FEW OR NO CLOUDS BELOW 12000 FEET
WITH NO SIGNIFICANT WEATHER AND/OR OBSTRUCTIONS TO VISIBILITY

IDZ012-014-260400-
SOUTHWEST IDAHO


CITY           SKY/WX    TMP DP  RH WIND       PRES   REMARKS
BOISE          CLOUDY    52  42  69 W6        30.26S
CALDWELL       NOT AVBL
MOUNTAIN HOME  CLOUDY    51  45  80 NW9       30.25R
$$

IDZ016-017-260400-
SOUTHCENTRAL IDAHO


CITY           SKY/WX    TMP DP  RH WIND       PRES   REMARKS
BURLEY         CLOUDY    50  37  61 W15G23    30.23R
JEROME         CLOUDY    48  38  68 SW14G22   30.26R
TWIN FALLS     CLOUDY    52  37  56 SW23G29   30.27R
$$

IDZ019>023-260400-
SOUTHEAST IDAHO


CITY           SKY/WX    TMP DP  RH WIND       PRES   REMARKS
IDAHO FALLS    PTCLDY    42  38  85 SW20      30.09R
POCATELLO      CLOUDY    47  40  76 SW28G43   30.17R
REXBURG        CLOUDY    40  36  86 S14G21    30.08R WCI  32
$$

IDZ006-010-011-018-031-032-260400-
CENTRAL IDAHO MOUNTAINS


CITY           SKY/WX    TMP DP  RH WIND       PRES   REMARKS
MCCALL         LGT RAIN  34  34 100 N3        30.20F FOG
HAILEY         CLEAR     43  34  70 CALM      30.16R
STANLEY          N/A     37  32  82 CALM      30.22S
SALMON         CLOUDY    34  32  93 SE5       30.11S WCI  30
CHALLIS        CLOUDY    36  33  89 CALM      30.10S
$$

IDZ002-004-006-007-026-260400-
NORTHERN IDAHO


CITY           SKY/WX    TMP DP  RH WIND       PRES   REMARKS
LEWISTON       LGT RAIN  43  42  97 E5        30.17F
LOWELL           N/A     36  34  92 VRB5      30.22R WCI  32
COEUR D`ALENE  MOCLDY    34  32  93 CALM      30.18S
MULLAN PASS    LGT SNOW  26  23  88 S6        30.07S VSB 1   WCI  19
$$


USA.gov is the U.S. government's official web portal to all federal, state and local government web resources and services.